Location: Unspecified
(51.0950°N, 12.9690°E)
Time: 06:33:50
(UTC+00:00)

ATLAS 3B R/B - Pass Details

Date: 23 May 2022
Orbit: 976 x 1218 km, 63.8° (Epoch: 20 June)

Event Time Altitude Azimuth Distance (km) Brightness Sun altitude
Rises 00:07:26 0° 309° (NW) 3,997 6.0 -17.1°
Reaches altitude 10° 00:11:19 10° 289° (WNW) 3,076 5.1 -16.9°
Maximum altitude 00:15:23 16° 255° (WSW) 2,693 4.5 -16.7°
Enters shadow 00:17:26 14° 237° (WSW) 2,817 4.4 -16.6°
